Location: Gollag?dem
(16.8053°N, 80.8024°E)
Time: 09:46:43
(UTC+00:00)

H-2A R/B - Pass Details

Date: 13 August 2020
Orbit: 733 x 837 km, 98.2° (Epoch: 18 September)

Event Time Altitude Azimuth Distance (km) Brightness Sun altitude
Exits shadow 14:25:14 - 178° (S) 2,858 4.7 -19.5°
Reaches altitude 10° 14:26:28 10° 180° (S) 2,371 4.3 -19.7°
Maximum altitude 14:31:36 57° 258° (WSW) 921 2.6 -20.9°
Drops below altitude 10° 14:36:37 10° 337° (NNW) 2,309 5.1 -22.0°
Sets 14:38:56 0° 342° (NNW) 3,221 5.8 -22.5°
